Weather History for Las Vegas, NM

Change the Weather History Date:

Wednesday, December 4, 2013

  Actual Average Record
Temperature  
Mean Temperature 34 °F -  
Max Temperature 50 °F 52 °F 72 °F (1987)
Min Temperature 19 °F 23 °F 6 °F (1955)
Degree Days  
Heating Degree Days 30    
Moisture  
Dew Point 19 °F    
Average Humidity 42    
Maximum Humidity 81    
Minimum Humidity 29    
Precipitation  
Precipitation 0.00 in - - ()
Sea Level Pressure  
Sea Level Pressure 29.51 in    
Wind  
Wind Speed 22 mph (SW)    
Max Wind Speed 44 mph    
Max Gust Speed 58 mph    
Visibility 10 miles    
Events Rain    
Averages and records for this station are not official NWS values.
T = Trace of Precipitation, MM = Missing Value Source: NWS Daily Summary

Daily Weather History Graph

Daily Weather History Graph

Search for Another Location

Airport:

Trip Planner

Search our weather history database for the weather conditions in past years. The results will help you decide how hot, cold, wet, or windy it might be!

Date:

Astronomy

Dec. 04, 2013 Rise Set
Actual Time 6:54 AM MST 4:47 PM MST
Civil Twilight 6:26 AM MST 5:15 PM MST
Nautical Twilight 5:54 AM MST 5:46 PM MST
Astronomical Twilight 5:24 AM MST 6:17 PM MST
Moon 8:26 AM MST (12/4) 6:58 PM MST (12/4)
Length of Visible Light 10h 48m
Length of Day
9h 52m
Waxing Crescent, 5% of the Moon is Illuminated
Dec 4
Waxing Crescent
Dec 9
First Quarter
Dec 17
Full
Dec 25
Last Quarter
Jan 1
New

Hourly Weather History & Observations

Time (MST) Temp. Windchill Dew Point Humidity Pressure Visibility Wind Dir Wind Speed Gust Speed Precip Events Conditions
12:53 AM 39.9 °F 32.9 °F 16.0 °F 38% 29.46 in 10.0 mi SW 11.5 mph - N/A   Clear
1:53 AM 39.9 °F 31.8 °F 16.0 °F 38% 29.47 in 10.0 mi SW 15.0 mph - N/A   Clear
2:53 AM 41.0 °F 33.1 °F 17.1 °F 38% 29.48 in 10.0 mi SW 15.0 mph - N/A   Clear
3:53 AM 41.0 °F 33.1 °F 19.0 °F 41% 29.46 in 10.0 mi WSW 15.0 mph 26.5 mph N/A   Clear
4:53 AM 41.0 °F 32.2 °F 21.0 °F 45% 29.43 in 10.0 mi SW 18.4 mph 29.9 mph N/A   Clear
5:53 AM 39.9 °F 30.2 °F 21.0 °F 47% 29.44 in 10.0 mi SW 20.7 mph 34.5 mph N/A   Clear
6:53 AM 39.9 °F 30.2 °F 19.0 °F 43% 29.46 in 10.0 mi SW 20.7 mph 33.4 mph N/A   Clear
7:53 AM 42.1 °F 32.1 °F 19.9 °F 41% 29.45 in 10.0 mi SW 25.3 mph 35.7 mph N/A   Clear
8:53 AM 46.0 °F 37.4 °F 19.9 °F 35% 29.45 in 10.0 mi SW 25.3 mph 41.4 mph N/A   Clear
9:53 AM 48.9 °F - 19.9 °F 32% 29.45 in 10.0 mi SW 38.0 mph 50.6 mph N/A   Clear
10:53 AM 50.0 °F - 19.0 °F 29% 29.44 in 10.0 mi WSW 43.7 mph 52.9 mph 0.00 in Rain Light Rain
11:53 AM 50.0 °F - 21.0 °F 32% 29.42 in 10.0 mi SW 34.5 mph 44.9 mph 0.00 in   Clear
12:53 PM 48.9 °F - 21.9 °F 35% 29.42 in 10.0 mi SW 40.3 mph 50.6 mph N/A   Partly Cloudy
1:53 PM 50.0 °F - 21.9 °F 33% 29.41 in 10.0 mi WSW 31.1 mph 57.5 mph N/A   Partly Cloudy
2:53 PM 50.0 °F - 19.0 °F 29% 29.41 in 10.0 mi WSW 29.9 mph 42.6 mph N/A   Clear
3:53 PM 48.0 °F - 18.0 °F 30% 29.46 in 10.0 mi WSW 33.4 mph 47.2 mph N/A   Partly Cloudy
4:53 PM 46.0 °F 36.4 °F 17.1 °F 31% 29.49 in 10.0 mi WSW 32.2 mph 44.9 mph N/A   Clear
5:53 PM 44.1 °F 33.7 °F 18.0 °F 35% 29.54 in 10.0 mi WSW 32.2 mph 47.2 mph N/A   Clear
6:53 PM 42.1 °F 30.6 °F 21.0 °F 43% 29.57 in 10.0 mi WSW 34.5 mph 48.3 mph N/A   Clear
7:53 PM 39.0 °F 27.2 °F 21.9 °F 50% 29.60 in 10.0 mi WSW 29.9 mph 38.0 mph N/A   Clear
8:53 PM 37.9 °F 26.8 °F 21.9 °F 53% 29.63 in 10.0 mi WSW 24.2 mph 33.4 mph N/A   Clear
9:53 PM 37.0 °F 26.4 °F 23.0 °F 57% 29.66 in 10.0 mi SW 20.7 mph 27.6 mph N/A   Scattered Clouds
10:53 PM 19.9 °F 5.7 °F 15.1 °F 81% 29.75 in 10.0 mi SSE 16.1 mph - N/A   Mostly Cloudy
11:53 PM 19.9 °F 13.4 °F 15.1 °F 81% 29.79 in 10.0 mi Variable 4.6 mph - N/A   Overcast